Location: Córrego Montividiu
(13.2496°S, 48.8603°W)
Time: 11:11:37
(UTC+00:00)

SL-08 R/B - Pass Details

Date: 11 March 2026
Orbit: 667 x 728 km, 98.5° (Epoch: 22 April)

Event Time Altitude Azimuth Distance (km) Brightness Sun altitude
Exits shadow 22:29:36 21° 61° (ENE) 1,587 4.6 -14.8°
Maximum altitude 22:31:53 31° 105° (ESE) 1,257 4.1 -15.3°
Drops below altitude 10° 22:36:08 10° 166° (SSE) 2,219 5.8 -16.4°
Sets 22:38:39 0° 176° (S) 3,151 6.7 -17.0°
